Location: Hawks Ness
(60.2333°N, 1.1667°W)
Time: 04:32:58
(UTC+00:00)

NOSS 7 (D) - Pass Details

Date: 22 October 2019
Orbit: 329 x 800 km, 63.3° (Epoch: 18 November)

Event Time Altitude Azimuth Distance (km) Brightness Sun altitude
Exits shadow 03:20:04 13° 64° (ENE) 1,130 7.3 -27.4°
Drops below altitude 10° 03:20:29 10° 67° (ENE) 1,300 7.7 -27.3°
Enters shadow 04:21:41 -65° 273° (W) 12,290 11.6 -20.3°
Maximum altitude 04:56:55 52° 14° (NNE) 440 4.4 -16.0°
